Regional Weather Roundup
Issued by NWS

Home | Current Version | Previous Version | Text Only | Print | Product List | Glossary On
Versions: 1 2 3 4 5 6 7 8 9 10 11 12 13 14 15 16 17 18 19 20 21 22 23 24 25 26 27 28 29 30 31 32 33 34 35 36 37 38 39 40 41 42 43 44 45 46 47 48 49 50
000
ASUS44 KFWD 302115
RWRTX
NORTH TEXAS HOURLY WEATHER ROUNDUP
NATIONAL WEATHER SERVICE FORT WORTH TX
400 PM CDT TUE SEP 30 2014

NOTE: "FAIR" INDICATES FEW OR NO CLOUDS BELOW 12,000 FEET WITH NO
SIGNIFICANT WEATHER AND/OR OBSTRUCTIONS TO VISIBILITY.

TXZ118-119-302200-
DALLAS/FORT WORTH METROPLEX

CITY           SKY/WX    TMP DP  RH WIND       PRES   REMARKS
DFW AIRPORT    PTSUNNY   90  64  42 SE7       29.77F HX  91
DALLAS LOVE    PTSUNNY   91  65  41 SE14      29.77F HX  93
FTW MEACHAM    MOSUNNY   92  61  35 S8        29.76F HX  92
DAL-EXECUTIVE  MOSUNNY   90  62  39 SE10      29.77F HX  90
FTW-ALLIANCE   MOSUNNY   91  61  36 S13       29.76F HX  91
FTW-NAS-JRB    MOSUNNY   94  57  28 SE12      29.81F HX  92
FTW-SPINKS     PTSUNNY   93  59  31 S10       29.79F HX  92
ARLINGTON      MOSUNNY   89  62  40 SE7       29.78F
GRAND PRAIRIE  SUNNY     88  63  42 MISG      29.79F
MESQUITE       MOSUNNY   90  61  37 SE9       29.78F
LANCASTER      PTSUNNY   90  62  39 SE8       29.78F HX  90
$$

TXZ091>094-102>105-117-120-121-131>134-302200-
NORTH CENTRAL TEXAS

CITY           SKY/WX    TMP DP  RH WIND       PRES   REMARKS
SHRMAN/DENISON MOSUNNY   89  60  38 S8        29.80F
GAINESVILLE    SUNNY     88  64  44 SE10      29.80F
BOWIE          MOSUNNY   91  56  30 SE12G17   29.77F
BRIDGEPORT     MOSUNNY   91  51  25 SW12      29.79F
DECATUR        MOSUNNY   89  56  32 S13G18    29.79F
DENTON         MOSUNNY   90  62  39 SE16      29.77F HX  90
MCKINNEY       MOSUNNY   89  63  41 S16       29.78F HX  90
GREENVILLE     MOSUNNY   90  61  37 SE12      29.79F
ROCKWALL       MOSUNNY   89  65  44 S10       29.78F HX  90
TERRELL        PTSUNNY   91  66  43 E14       29.79F HX  93
WAXAHACHIE     MOSUNNY   91  64  39 S9G16     29.79F HX  92
CLEBURNE       SUNNY     91  59  33 S13       29.79F HX  90
GRANBURY       MOSUNNY   92  55  28 E8        29.78F HX  90
$$

TXZ083>090-098>101-113>116-127>130-139>142-154-155-302200-
WESTERN NORTH TEXAS

CITY           SKY/WX    TMP DP  RH WIND       PRES   REMARKS
WICHITA FALLS  MOSUNNY   92  56  29 S17       29.75F HX  90
WF-KICKAPOO    SUNNY     91  51  25 S13G21    29.77F
VERNON           N/A    N/A N/A N/A S21       29.73F
ABILENE        SUNNY     91  57  31 S12G20    29.79F
ABILENE-DYESS  SUNNY     91  58  33 S13G21    29.77F
BRECKENRIDGE   SUNNY     92  53  26 S15       29.76F HAZE    HX  90
GRAHAM         SUNNY     93  53  25 S12G17    29.74F HX  90
MINERAL WELLS  SUNNY     91  54  28 S10       29.76F
STEPHENVILLE   MOSUNNY   89  53  28 S8        29.82F
COMANCHE       SUNNY     91  52  26 SE9       29.80F
BROWNWOOD      SUNNY     88  57  35 SE7G18    29.79F
COLEMAN        SUNNY     91  53  28 SW10G16   29.80F
BRADY          MOSUNNY   90  59  35 S7        29.80F
$$

TXZ143>147-156>162-174-175-302200-
CENTRAL TEXAS

CITY           SKY/WX    TMP DP  RH WIND       PRES   REMARKS
WACO           MOSUNNY   92  62  36 S13       29.78F HX  92
WACO-TSTC      MOSUNNY   91  63  38 S7        29.78F HX  92
WACO-MCGREGOR  SUNNY     91  61  35 S13G18    29.78F HX  91
HILLSBORO      PTSUNNY   89  61  38 S9G16     29.78F
CORSICANA      PTSUNNY   91  65  41 SE17      29.79F HX  93
MEXIA          MOSUNNY   88  69  53 S9        29.78F HX  92
HEARNE         MOSUNNY   89  69  52 E7        29.78F HX  93
CAMERON        SUNNY     89  67  47 SE3       29.78F HX  92
TEMPLE         MOSUNNY   90  63  40 S13       29.79F HX  90
KILLEEN        MOSUNNY   90  63  40 E7        29.80F HX  90
KILLEEN-SKYLRK MOSUNNY   88  63  42 SE9       29.80F
GATESVILLE     MOSUNNY   90  59  35 SE5       29.81F
HAMILTON       MOSUNNY   88  53  30 SE9G21    29.81F
LAMPASAS       MOSUNNY   89  65  44 SE8       29.80F HX  91
$$

TXZ095>097-106>112-122>126-135>138-148>153-164>167-302200-
EAST TEXAS

CITY           SKY/WX    TMP DP  RH WIND       PRES   REMARKS
PARIS          PTSUNNY   84  63  48 E7        29.81F
SULPHUR SPRNGS PTSUNNY   90  64  41 S8        29.81F HX  91
MOUNT PLEASANT MOSUNNY   87  64  46 S6        29.82F
GILMER         MOSUNNY   88  66  48 CALM      29.82F HX  90
MINEOLA        MOSUNNY   90  66  45 S8        29.80F HX  92
TYLER          PTSUNNY   90  66  45 S10       29.80F HX  92
LONGVIEW       MOSUNNY   89  66  46 VRB6      29.80F HX  91
MARSHALL       CLOUDY    89  67  47 E3        29.83S HX  92
ATHENS         CLOUDY    88  64  45 S7        29.79S
PALESTINE      MOSUNNY   89  69  50 SE8       29.81F HX  93
JACKSONVILLE   MOSUNNY   88  67  50 SE8       29.84F HX  91
HENDERSON      CLOUDY    87  67  50 E6        29.82S
NACOGDOCHES    SUNNY     88  70  55 S6        29.81F HX  92
LUFKIN         MOSUNNY   89  69  51 S8        29.81F HX  93
$$

SUPPLEMENTAL OBSERVATIONS (CENTRAL)

CITY           SKY/WX    TMP DP  RH WIND       PRES   REMARKS
LAKE TEXOMA      N/A     88  63  42 SE5         N/A
CADDO GRASSLND   N/A     84  66  54 E5          N/A
PAT MAYSE LAKE   N/A     82  66  57 NE6         N/A
PALESTINE        N/A     90  70  51 SE5         N/A  HX  95
MCGREGOR         N/A     90  61  37 SE9         N/A
TEMPLE           N/A     90  64  43 SE8         N/A  HX  91
$$

SUPPLEMENTAL OBSERVATIONS (WEST)

CITY           SKY/WX    TMP DP  RH WIND       PRES   REMARKS
MILLERS CREEK    N/A    N/A N/A N/A S13         N/A
POSSUM KINGDOM   N/A     91  50  24 S12G20      N/A
LBJ GRASSLAND    N/A     90  57  33 S10         N/A
GRANBURY         N/A     91  54  27 SE8         N/A
HAMBY            N/A     90  55  31 S12G20      N/A
IVIE RESERVOIR   N/A     91  57  31 S8G17       N/A  HX  90
COLORADO BEND    N/A     88  57  35 S7G16       N/A
$$

SUPPLEMENTAL OBSERVATIONS (EAST)

CITY           SKY/WX    TMP DP  RH WIND       PRES   REMARKS
CLARKSVILLE      N/A     84  64  51 SE5         N/A
TEXARKANA        N/A     90  64  43 E2          N/A  HX  91
LINDEN           N/A     91  64  40 S3          N/A  HX  93
CADDO LAKE       N/A     88  68  51 E2          N/A  HX  91
GILMER           N/A     90  66  45 SE2         N/A  HX  92
HENDERSON        N/A     88  68  51 E7          N/A  HX  91
LUFKIN           N/A     88  68  51 MISG        N/A  HX  91
N SABINE NF      N/A     91  66  43 MISG        N/A  HX  94
S SABINE NF      N/A     90  70  51 E3          N/A  HX  95
$$

SUPPLEMENTAL OBSERVATIONS ARE A COLLECTION OF AUTOMATED INSTRUMENTS
THAT ARE MAINTAINED BY A VARIETY OF FEDERAL AND STATE AGENCIES.
CERTAIN ELEMENTS...SUCH AS HUMIDITY VALUES AND SUSTAINED WIND
SPEEDS...MAY BE APPROXIMATED.




USA.gov is the U.S. government's official web portal to all federal, state and local government web resources and services.